Stevens Point, WI

10:46 AM CST on January 20, 2017 (GMT -0600)
Stevens Point Municipal

Weather History for KSTE - November, 2013

Change the Weather History Date:

Monday, November 25, 2013

  Actual Average Record
Temperature  
Mean Temperature 27 °F -  
Max Temperature 32 °F 37 °F 55 °F (1988)
Min Temperature 22 °F 20 °F -12 °F (1950)
Degree Days  
Heating Degree Days 38    
Moisture  
Dew Point 17 °F    
Average Humidity 65    
Maximum Humidity 80    
Minimum Humidity 44    
Precipitation  
Precipitation 0.00 in - - ()
Sea Level Pressure  
Sea Level Pressure 29.94 in    
Wind  
Wind Speed 13 mph (SW)    
Max Wind Speed 18 mph    
Max Gust Speed 29 mph    
Visibility 10 miles    
Events      
Averages and records for this station are not official NWS values.
T = Trace of Precipitation, MM = Missing Value Source: NWS Daily Summary

Daily Weather History Graph

Daily Weather History Graph

Search for Another Location

Airport or City:

Trip Planner

Search our weather history database for the weather conditions in past years. The results will help you decide how hot, cold, wet, or windy it might be!

Date:

Astronomy

Nov. 25, 2013 Rise Set
Actual Time 7:07 AM CST 4:22 PM CST
Civil Twilight 6:35 AM CST 4:54 PM CST
Nautical Twilight 5:59 AM CST 5:30 PM CST
Astronomical Twilight 5:24 AM CST 6:05 PM CST
Moon 11:57 PM CST (11/25) 12:15 PM CST (11/25)
Length of Visible Light 10h 19m
Length of Day
9h 14m
Waning Gibbous, 51% of the Moon is Illuminated
Nov 25
Waning Gibbous
Nov 25
Last Quarter
Dec 2
New
Dec 9
First Quarter
Dec 17
Full

Hourly Weather History & Observations

Time (CST) Temp. Windchill Dew Point Humidity Pressure Visibility Wind Dir Wind Speed Gust Speed Precip Events Conditions
12:15 AM 22.1 °F 8.9 °F 5.4 °F 49% 30.06 in 10.0 mi SSW 15.0 mph 23.0 mph N/A   Overcast
12:35 AM 22.5 °F 8.0 °F 5.0 °F 47% 30.05 in 10.0 mi SSW 18.4 mph 23.0 mph N/A   Overcast
12:55 AM 22.6 °F 8.7 °F 5.0 °F 47% 30.04 in 10.0 mi SSW 17.3 mph - N/A   Overcast
1:15 AM 23.0 °F 9.6 °F 4.8 °F 46% 30.03 in 10.0 mi SSW 16.1 mph 23.0 mph N/A   Overcast
1:35 AM 23.4 °F 9.2 °F 5.0 °F 45% 30.02 in 10.0 mi SSW 18.4 mph 23.0 mph N/A   Overcast
1:55 AM 23.5 °F 10.8 °F 4.6 °F 44% 30.02 in 10.0 mi SSW 15.0 mph - N/A   Overcast
2:15 AM 23.4 °F 9.2 °F 4.6 °F 45% 30.01 in 10.0 mi SSW 18.4 mph 23.0 mph N/A   Overcast
2:35 AM 23.4 °F 10.6 °F 5.0 °F 45% 30.00 in 10.0 mi SSW 15.0 mph 19.6 mph N/A   Overcast
2:55 AM 23.5 °F 11.8 °F 5.0 °F 45% 29.99 in 10.0 mi SSW 12.7 mph 19.6 mph N/A   Overcast
3:15 AM 23.9 °F 11.7 °F 5.0 °F 44% 29.98 in 10.0 mi SSW 13.8 mph 18.4 mph N/A   Overcast
3:35 AM 23.9 °F 12.3 °F 5.2 °F 45% 29.97 in 10.0 mi SSW 12.7 mph 18.4 mph N/A   Overcast
3:55 AM 23.9 °F 10.8 °F 5.5 °F 46% 29.95 in 10.0 mi SSW 16.1 mph 20.7 mph N/A   Mostly Cloudy
4:15 AM 23.9 °F 10.8 °F 5.9 °F 46% 29.94 in 10.0 mi SW 16.1 mph 23.0 mph N/A   Overcast
4:35 AM 23.9 °F 11.2 °F 6.3 °F 47% 29.94 in 10.0 mi SW 15.0 mph 20.7 mph N/A   Overcast
4:55 AM 24.3 °F 12.2 °F 7.7 °F 49% 29.93 in 10.0 mi SW 13.8 mph 20.7 mph N/A   Overcast
5:15 AM 24.4 °F 13.5 °F 7.3 °F 48% 29.93 in 10.0 mi SW 11.5 mph 24.2 mph N/A   Overcast
5:35 AM 24.8 °F 11.9 °F 8.2 °F 49% 29.93 in 10.0 mi SW 16.1 mph 20.7 mph N/A   Overcast
5:55 AM 24.8 °F 11.5 °F 10.4 °F 54% 29.93 in 10.0 mi SW 17.3 mph 23.0 mph N/A   Overcast
6:15 AM 25.0 °F 11.7 °F 13.3 °F 61% 29.93 in 10.0 mi WSW 17.3 mph 24.2 mph N/A   Overcast
6:35 AM 24.8 °F 11.5 °F 15.4 °F 68% 29.93 in 10.0 mi WSW 17.3 mph 25.3 mph N/A   Overcast
6:55 AM 24.4 °F 11.5 °F 16.5 °F 72% 29.93 in 10.0 mi SW 16.1 mph 19.6 mph N/A   Overcast
7:15 AM 24.1 °F 10.1 °F 17.1 °F 75% 29.91 in 10.0 mi SSW 18.4 mph 21.9 mph N/A   Overcast
7:35 AM 24.1 °F 11.0 °F 17.6 °F 76% 29.93 in 10.0 mi SW 16.1 mph 24.2 mph N/A   Overcast
7:55 AM 24.3 °F 11.7 °F 18.3 °F 78% 29.93 in 10.0 mi SW 15.0 mph 23.0 mph N/A   Overcast
8:15 AM 24.4 °F 11.9 °F 18.5 °F 78% 29.94 in 10.0 mi SW 15.0 mph 21.9 mph N/A   Overcast
8:35 AM 24.6 °F 12.7 °F 19.0 °F 79% 29.93 in 10.0 mi WSW 13.8 mph 17.3 mph N/A   Overcast
8:55 AM 24.8 °F 12.9 °F 19.4 °F 80% 29.93 in 10.0 mi SW 13.8 mph 20.7 mph N/A   Overcast
9:15 AM 25.3 °F 13.1 °F 19.4 °F 78% 29.93 in 10.0 mi SW 15.0 mph 21.9 mph N/A   Overcast
9:35 AM 25.5 °F 14.9 °F 19.4 °F 78% 29.93 in 10.0 mi WSW 11.5 mph - N/A   Overcast
9:55 AM 25.7 °F 14.0 °F 19.8 °F 78% 29.93 in 10.0 mi WSW 13.8 mph 20.7 mph N/A   Overcast
10:15 AM 26.2 °F 14.7 °F 19.9 °F 77% 29.93 in 10.0 mi WSW 13.8 mph 20.7 mph N/A   Overcast
10:35 AM 26.4 °F 14.0 °F 20.1 °F 77% 29.93 in 10.0 mi WSW 16.1 mph 23.0 mph N/A   Overcast
10:55 AM 26.6 °F 13.8 °F 20.3 °F 77% 29.91 in 10.0 mi WSW 17.3 mph 23.0 mph N/A   Overcast
11:15 AM 26.8 °F 14.9 °F 20.5 °F 77% 29.90 in 10.0 mi SW 15.0 mph 21.9 mph N/A   Overcast
11:35 AM 27.5 °F 17.4 °F 20.7 °F 75% 29.90 in 10.0 mi WSW 11.5 mph 21.9 mph N/A   Overcast
11:55 AM 28.0 °F 17.5 °F 20.8 °F 74% 29.90 in 10.0 mi WSW 12.7 mph 28.8 mph N/A   Overcast
12:15 PM 28.2 °F 18.3 °F 20.8 °F 74% 29.90 in 10.0 mi WSW 11.5 mph 20.7 mph N/A   Overcast
12:35 PM 28.6 °F 18.7 °F 20.8 °F 73% 29.90 in 10.0 mi SW 11.5 mph 18.4 mph N/A   Overcast
1:15 PM 29.3 °F 19.1 °F 21.0 °F 71% 29.90 in 10.0 mi WSW 12.7 mph 20.7 mph N/A   Overcast
1:35 PM 29.8 °F 21.5 °F 21.2 °F 70% 29.90 in 10.0 mi West 9.2 mph 18.4 mph N/A   Overcast
1:55 PM 30.2 °F 21.3 °F 21.2 °F 69% 29.90 in 10.0 mi WSW 10.4 mph 17.3 mph N/A   Overcast
2:15 PM 31.1 °F 23.1 °F 21.6 °F 68% 29.90 in 10.0 mi WSW 9.2 mph - N/A   Overcast
2:35 PM 32.0 °F 22.1 °F 21.7 °F 66% 29.90 in 10.0 mi WSW 13.8 mph 18.4 mph N/A   Mostly Cloudy
2:55 PM 32.0 °F 24.2 °F 21.7 °F 66% 29.90 in 10.0 mi WSW 9.2 mph 16.1 mph N/A   Scattered Clouds
3:15 PM 32.0 °F 23.6 °F 21.7 °F 66% 29.91 in 10.0 mi SW 10.4 mph - N/A   Clear
3:35 PM 32.0 °F 24.2 °F 21.9 °F 66% 29.93 in 10.0 mi SW 9.2 mph - N/A   Clear
3:55 PM 30.7 °F 23.3 °F 21.7 °F 69% 29.93 in 10.0 mi SW 8.1 mph - N/A   Clear
4:15 PM 30.2 °F 25.4 °F 21.7 °F 71% 29.94 in 10.0 mi WSW 4.6 mph - N/A   Scattered Clouds
4:35 PM 29.3 °F 23.2 °F 22.1 °F 75% 29.94 in 10.0 mi SW 5.8 mph - N/A   Overcast
4:55 PM 30.2 °F 23.4 °F 22.1 °F 72% 29.94 in 10.0 mi SW 6.9 mph - N/A   Overcast
5:15 PM 30.4 °F 24.5 °F 22.5 °F 72% 29.95 in 10.0 mi SW 5.8 mph - N/A   Overcast
5:35 PM 30.7 °F 24.9 °F 22.6 °F 72% 29.95 in 10.0 mi SW 5.8 mph - N/A   Overcast
5:55 PM 30.9 °F 24.3 °F 22.6 °F 71% 29.95 in 10.0 mi SW 6.9 mph - N/A   Overcast
6:15 PM 31.1 °F 23.7 °F 23.0 °F 72% 29.95 in 10.0 mi WSW 8.1 mph - N/A   Overcast
6:35 PM 31.5 °F 24.9 °F 23.0 °F 71% 29.95 in 10.0 mi WSW 6.9 mph - N/A   Overcast
6:55 PM 31.6 °F 24.4 °F 23.0 °F 70% 29.95 in 10.0 mi WSW 8.1 mph - N/A   Overcast
7:15 PM 31.8 °F 26.2 °F 23.4 °F 71% 29.95 in 10.0 mi WSW 5.8 mph - N/A   Overcast
7:35 PM 31.8 °F 26.2 °F 23.4 °F 71% 29.95 in 10.0 mi WSW 5.8 mph - N/A   Overcast
7:55 PM 31.8 °F 26.2 °F 23.4 °F 71% 29.95 in 10.0 mi WSW 5.8 mph - N/A   Overcast
8:15 PM 32.0 °F 24.8 °F 22.6 °F 68% 29.95 in 10.0 mi WSW 8.1 mph - N/A   Overcast
8:35 PM 32.2 °F 26.7 °F 21.7 °F 65% 29.95 in 10.0 mi West 5.8 mph - N/A   Overcast
8:55 PM 32.4 °F 25.3 °F 21.2 °F 63% 29.95 in 10.0 mi WSW 8.1 mph - N/A   Overcast
9:15 PM 32.2 °F 25.0 °F 21.0 °F 63% 29.95 in 10.0 mi West 8.1 mph - N/A   Overcast
9:35 PM 32.2 °F 25.0 °F 21.0 °F 63% 29.95 in 10.0 mi WSW 8.1 mph - N/A   Overcast
9:55 PM 32.2 °F 25.8 °F 21.0 °F 63% 29.95 in 10.0 mi WSW 6.9 mph - N/A   Overcast
10:15 PM 32.0 °F 25.6 °F 21.2 °F 64% 29.95 in 10.0 mi WSW 6.9 mph - N/A   Overcast
10:35 PM 32.0 °F 25.6 °F 21.2 °F 64% 29.95 in 10.0 mi WSW 6.9 mph - N/A   Overcast
10:55 PM 32.0 °F 25.6 °F 21.2 °F 64% 29.94 in 10.0 mi WSW 6.9 mph - N/A   Overcast
11:15 PM 32.0 °F 25.6 °F 21.6 °F 65% 29.94 in 10.0 mi WSW 6.9 mph - N/A   Overcast
11:35 PM 32.0 °F 25.6 °F 21.7 °F 66% 29.95 in 10.0 mi WSW 6.9 mph - N/A   Overcast
11:55 PM 31.8 °F 25.4 °F 21.7 °F 66% 29.94 in 10.0 mi WSW 6.9 mph - N/A   Overcast